Torna al catalogo

THOR ABLESTAR DEB

AttivoLEO
NORAD 235·DEBRIS·🇺🇸 United States

Lanciato Jun 29, 1961 da Cape Canaveral Space Force Station

Loading…

Prossimi Passaggi (prossime 24 ore)

TLE

AggiornatoSource: Space-Track

Epoca: Sep 5, 2026, 15:23 UTC

1 00235U 61015BT  26248.64141233 -.00000171  00000-0 -43732-4 0  9993
2 00235  66.9539  68.7190 0166774 273.3952  84.8075 14.11404311332687

Traccia THOR ABLESTAR DEB in tempo reale con AllMySat

Download on the App Store